Terminal Aerodrome Forecast
Issued by NWS

Home | Current Version | Previous Version | Text Only | Print | Product List | Glossary On
Versions: 1 2 3 4 5 6 7 8 9 10 11 12 13 14 15 16 17 18 19
000
FTAK31 PAFA 231738
TAFASC
TAF
PASC 231738Z 2318/2418 12008KT 6SM -SHRA BR SCT005 OVC015
     FM232000 15012KT 5SM -RA SCT005 BKN015 OVC025
     FM240000 18012KT 4SM -RA BR SCT005 BKN015 OVC025
     FM240300 21012KT 5SM -SHRA BR SCT005 OVC015
     FM240800 24010KT P6SM -SHRA SCT008 OVC025=

USA.gov is the U.S. government's official web portal to all federal, state and local government web resources and services.